Location: *
(47.3705°S, 171.3065°W)
Time: 21:02:30
(UTC+00:00)

Daily predictions for brighter satellites

Satellite Brightness Start Highest point End
(mag) Time Altitude Azimuth Time Altitude Azimuth Time Altitude Azimuth
Cosmos 2227 Rocket 4.3 12:25:59 22° SE 12:25:59 22° SE 12:27:57 10° SE
ARIANE 5 R/B 4.3 13:22:54 26° S 13:22:54 26° S 13:25:13 10° S
ADEOS Rocket 3.9 13:21:05 10° SSE 13:25:47 39° E 13:25:47 39° E
USA 215 3.7 13:32:19 10° SE 13:38:41 53° SSW 13:38:53 52° SSW
Timation 2 Rocket 4.4 13:45:45 57° S 13:45:45 57° S 13:50:51 10° SSE
Cosmos 2297 Rocket 3.6 13:46:21 30° SSW 13:46:21 30° SSW 13:50:00 10° SSE
FENGYUN 3A 4.2 13:53:09 56° ESE 13:53:14 56° ESE 13:58:38 10° S
ATLAS 2AS CENTAUR R/B 3.1 13:48:35 10° SW 13:55:24 64° SE 14:02:41 10° NE
Lacrosse 5 rocket 3.7 14:04:16 18° SSE 14:04:16 18° SSE 14:05:31 10° SE
SL-4 R/B 3.4 14:07:26 46° SE 14:07:26 46° SE 14:11:18 10° E
Cosmos 2227 Rocket 3.5 14:07:47 30° SSW 14:07:47 30° SSW 14:11:52 10° SSE
CZ-2C R/B 3.7 14:11:22 31° SSW 14:11:22 31° SSW 14:13:51 10° SSW
ALOS 3.0 14:13:29 50° SSE 14:13:29 50° SSE 14:17:12 10° S
Cosmos 2082 4.3 14:14:58 46° SSW 14:14:58 46° SSW 14:19:41 10° SSE
Nadezhda 4 Rocket 4.1 14:21:28 58° SW 14:21:28 58° SW 14:27:10 10° S
Meteor 1-27 Rocket 4.5 14:17:37 10° S 14:23:07 51° ESE 14:28:37 10° NNE
UNK 4.1 14:20:22 10° SSE 14:24:17 61° SSE 14:24:17 61° SSE
Cosmos 2227 4.2 14:25:08 68° NNE 14:25:40 73° ENE 14:31:25 10° SSE
Cosmos 2263 Rocket 2.0 14:27:01 87° NNW 14:27:08 90° SE 14:32:51 10° SSE
SL-16 R/B 2.4 14:28:02 10° SSE 14:34:20 87° WSW 14:35:46 57° NNW
Cosmos 1408 Rocket 3.8 14:39:53 66° S 14:39:53 66° S 14:43:42 10° S
Cosmos 1500 Rocket 4.0 14:43:31 48° NE 14:44:24 59° E 14:48:53 10° SSE
Cosmos 1943 3.2 14:50:08 10° SW 14:55:43 56° WNW 15:01:17 10° N
Cosmos 2251 Rocket 3.5 14:56:00 58° W 14:56:36 63° WSW 15:01:54 10° SSE
Cosmos 1867 4.4 14:58:08 33° WSW 14:58:52 34° SW 15:03:48 10° SSE
METEOR-M 4.0 14:56:55 35° N 14:59:13 67° WNW 15:04:38 10° SSW
Cosmos 1484 Rocket 3.2 15:00:56 49° SSW 15:00:56 49° SSW 15:03:56 10° SSW
Cosmos 1092 Rocket 4.2 14:59:36 45° WNW 15:00:47 51° WSW 15:07:00 10° S
Cosmos 1603 3.8 14:59:00 10° SW 15:04:27 48° WNW 15:09:50 10° N
Cosmos 2292 Rocket 4.3 15:03:50 39° NNW 15:05:59 73° WSW 15:13:03 10° S
USA 306 4.1 15:08:51 28° N 15:10:11 35° NE 15:14:08 10° ESE
ADEOS Rocket 3.5 15:06:51 10° S 15:11:54 35° WSW 15:12:44 33° W
H-2A R/B 4.0 15:09:25 10° NE 15:13:02 41° ESE 15:16:42 10° S
Cosmos 1844 Rocket 3.5 15:09:22 13° N 15:14:12 49° ENE 15:19:38 10° SE
Meteor 1-28 Rocket 3.3 15:11:09 10° S 15:14:41 54° WSW 15:14:41 54° WSW
S3M 4.1 15:08:36 10° S 15:15:04 81° E 15:21:31 10° N
Cosmos 614 Rocket 4.3 15:14:11 41° W 15:15:05 45° WSW 15:20:07 10° SSE
USA 308 4.2 15:13:38 26° N 15:15:13 34° NE 15:19:10 10° ESE
Cosmos 1140 Rocket 3.5 15:12:40 30° NNW 15:15:22 86° ENE 15:20:43 10° SSE
USA 215 4.3 15:14:58 10° ESE 15:20:57 39° S 15:26:13 13° WSW
Cosmos 1743 Rocket 3.7 15:24:09 39° NW 15:25:31 56° WSW 15:30:00 10° S
Cosmos 407 Rocket 3.5 15:23:05 28° NNW 15:25:58 76° WSW 15:31:25 10° SSE
Cosmos 1515 3.6 15:25:12 10° S 15:29:05 87° W 15:32:54 10° N
Cosmos 2228 Rocket 3.1 15:30:45 10° SSW 15:35:10 57° W 15:39:33 10° N
Cosmos 1190 Rocket 3.9 15:32:44 19° NNW 15:36:36 83° WSW 15:41:58 10° SSE
Cosmos 967 Rocket 4.5 15:32:32 22° NW 15:36:51 81° SW 15:43:18 10° SE
Cosmos 1666 Rocket 4.2 15:35:26 10° N 15:39:48 58° E 15:44:15 10° SSE
CZ-4B R/B 3.6 15:37:28 10° NNE 15:41:11 84° WNW 15:45:00 10° SSW
Lacrosse 5 rocket 3.2 15:39:52 12° SW 15:42:01 19° S 15:44:44 10° SE
RESURS DK-1 2.4 15:41:30 10° SSW 15:45:45 82° ESE 15:49:56 10° NNE
ATLAS 2AS CENTAUR R/B 3.3 15:39:51 10° SW 15:46:02 35° WNW 15:52:33 10° N
SJ-12 3.8 15:42:12 10° N 15:46:16 65° WNW 15:50:24 10° SSW
SL-4 R/B 2.3 15:42:59 19° WSW 15:46:27 76° NNW 15:51:17 10° ENE
SL-24 R/B 3.6 15:43:18 10° S 15:47:07 71° WSW 15:50:17 14° NNW
Meteor 2-16 Rocket 4.5 15:41:13 10° NNW 15:47:16 62° WSW 15:53:24 10° S
Cosmos 883 Rocket 4.5 15:42:51 10° S 15:49:10 87° W 15:55:26 10° N
Meteor 1-31 Rocket 2.6 15:46:28 10° N 15:50:18 70° WNW 15:54:11 10° SSW
ALOS 4.1 15:51:57 14° WSW 15:51:57 14° WSW 15:53:20 10° SW
CZ-4B R/B 4.2 15:46:27 10° NE 15:50:48 49° ESE 15:55:05 10° S
Meteor 1-20 Rocket 4.2 15:45:23 10° NNW 15:50:54 67° WSW 15:56:35 10° S
Meteor 1-18 Rocket 4.4 15:49:15 10° SSW 15:55:18 90° ENE 16:01:10 10° N
Lacrosse 4 Rocket 4.3 15:52:20 10° NNE 15:55:23 18° ENE 15:58:27 10° ESE
Spot 1 4.4 15:53:20 10° SSE 15:57:42 74° ENE 16:02:17 10° N
Meteor PRIRODA 4.4 15:56:00 10° NNE 15:59:42 56° ESE 16:03:25 10° S
Okean 1 3.3 15:56:36 10° SSW 16:00:39 60° W 16:04:37 10° N
Cosmos 1500 3.1 15:59:37 10° NNW 16:03:30 73° W 16:07:27 10° S
Cosmos 1602 4.1 16:00:51 13° NNW 16:04:09 42° WSW 16:07:56 10° S
YAOGAN 6 2.7 16:01:59 10° N 16:05:26 49° W 16:08:59 10° SSW
Cosmos 1844 3.7 15:59:51 10° NNW 16:05:34 85° WSW 16:11:18 10° SSE
[s.n.49157] 4.5 16:05:49 10° SSW 16:08:29 35° SE 16:11:09 10° NE
[s.n.49154] 4.5 16:06:07 10° SSW 16:08:47 35° SE 16:11:27 10° NE
[s.n.49152] 4.4 16:06:24 10° SSW 16:09:06 35° ESE 16:11:46 10° NE
[s.n.49155] 4.4 16:06:43 10° SSW 16:09:25 35° ESE 16:12:05 10° NE
[s.n.49153] 4.4 16:07:01 10° SSW 16:09:42 36° ESE 16:12:22 10° NE
[s.n.49150] 4.4 16:07:18 10° SSW 16:09:59 36° SE 16:12:41 10° NE
[s.n.49151] 4.4 16:07:37 10° SSW 16:10:18 36° ESE 16:12:59 10° NE
Cosmos 1707 Rocket 3.7 16:06:08 10° SSW 16:10:28 52° W 16:14:46 10° N
[s.n.49148] 4.3 16:07:55 10° SSW 16:10:37 37° ESE 16:13:18 10° NE
Cosmos 1862 Rocket 3.5 16:06:10 10° S 16:10:39 89° WNW 16:15:00 10° N
[s.n.49149] 4.3 16:08:12 10° SSW 16:10:55 37° ESE 16:13:36 10° NE
[s.n.49145] 4.3 16:08:31 10° SSW 16:11:14 37° ESE 16:13:55 10° NE
[s.n.49146] 4.3 16:08:49 10° SSW 16:11:33 38° ESE 16:14:15 10° NE
[s.n.49144] 4.3 16:09:07 10° SSW 16:11:51 38° ESE 16:14:34 10° NE
Cosmos 2263 Rocket 3.7 16:08:42 13° W 16:11:52 20° SW 16:16:03 10° S
[s.n.49147] 4.2 16:09:26 10° SSW 16:12:09 38° ESE 16:14:52 10° NE
[s.n.49143] 4.2 16:09:44 10° SSW 16:12:28 39° ESE 16:15:11 10° NE
[s.n.49142] 4.2 16:10:03 10° SSW 16:12:47 39° ESE 16:15:30 10° NE
[s.n.49140] 4.2 16:10:21 10° SSW 16:13:06 40° ESE 16:15:50 10° NE
[s.n.49141] 4.2 16:10:40 10° SSW 16:13:25 40° ESE 16:16:08 10° NE
[s.n.49138] 4.1 16:10:58 10° SSW 16:13:43 40° ESE 16:16:27 10° NE
[s.n.49139] 4.1 16:11:16 10° SSW 16:14:01 41° ESE 16:16:46 10° NE
Cosmos 839 Rocket 4.4 16:07:46 10° NW 16:14:21 74° SW 16:22:33 10° SE
[s.n.49134] 4.1 16:11:35 10° SSW 16:14:21 41° ESE 16:17:05 10° NE
[s.n.49137] 4.1 16:11:55 10° SSW 16:14:41 42° ESE 16:17:25 10° NE
[s.n.49135] 4.1 16:12:12 10° SSW 16:14:59 42° ESE 16:17:44 10° NE
[s.n.49136] 4.0 16:12:32 10° SSW 16:15:18 42° ESE 16:18:02 10° NE
[s.n.49133] 4.0 16:12:51 10° SSW 16:15:37 43° ESE 16:18:23 10° NE
Sich 1 3.7 16:11:40 10° NW 16:15:45 36° WSW 16:19:52 10° S
[s.n.49131] 4.0 16:13:10 10° SSW 16:15:57 43° ESE 16:18:43 10° NE
[s.n.49132] 4.0 16:13:29 10° SSW 16:16:16 44° ESE 16:19:01 10° NE
SL-16 R/B 4.0 16:12:53 10° S 16:17:07 19° SW 16:20:52 11° W
SJ-7 4.4 16:16:42 10° N 16:20:49 79° WNW 16:25:04 10° SSW
Meteor 2-4 Rocket 3.9 16:15:44 10° SSW 16:21:46 80° W 16:27:44 10° N
USA 305 2.9 16:18:09 13° WNW 16:22:05 82° SSW 16:26:28 10° ESE
Cosmos 1633 Rocket 3.1 16:17:57 10° NNW 16:22:20 64° W 16:26:46 10° S
Envisat 3.4 16:17:31 10° NNW 16:22:20 41° W 16:27:13 10° SSW
MOS 1 Rocket 3.6 16:17:30 10° S 16:23:01 79° WSW 16:28:15 10° NNW
Cosmos 1763 Rocket 3.5 16:20:04 10° SSW 16:25:22 65° WNW 16:30:39 10° N
Cosmos 1340 Rocket 3.0 16:25:23 10° NNW 16:29:13 48° WSW 16:33:08 10° S
ADEOS 4.1 16:29:53 10° NNW 16:34:42 36° W 16:39:36 10° SSW
Cosmos 676 Rocket 4.4 16:29:37 10° NW 16:34:44 46° WSW 16:39:56 10° SSE
Cosmos 1703 Rocket 4.3 16:31:09 10° S 16:35:33 59° ESE 16:39:56 10° NNE
USA 307 3.0 16:31:24 10° WNW 16:35:44 75° SSW 16:40:05 10° ESE
ISS -1.6 16:33:19 10° NNW 16:36:13 25° NE 16:39:08 10° E
Cosmos 1607 4.4 16:34:43 10° WNW 16:40:32 44° SW 16:46:28 10° SSE
Cosmos 2315 Rocket 4.4 16:35:43 10° SSW 16:41:40 43° W 16:47:36 10° NNW
Okean O Rocket 4.0 16:38:03 10° NE 16:41:55 29° ESE 16:45:50 10° S
